Previous Day | Next Day | Return to data request page.
                  HOURLY WEATHER FOR ST. LOUIS
                         MON FEB 10 2014
                              (CST)

        SKY/WX    TMP DP  RH WIND       PRES   REMARKS
1255 AM CLOUDY    16   3  56 N9        30.38S WCI   4          
 155 AM FLURRIES  13   2  61 N13       30.39R WCI  -2          
 255 AM FLURRIES  11  -2  56 N9        30.39S WCI  -2          
 355 AM FLURRIES   9  -2  61 N10       30.41R WCI  -5          
 455 AM CLOUDY     8  -3  61 NW13      30.43R WCI  -8          
 555 AM CLOUDY     7  -4  60 N10       30.44R WCI  -8          6HR MIN TEMP:   7; 6HR MAX TEMP:  17; 6HR PCP: TRACE;  
 655 AM CLOUDY     6  -5  60 NW9       30.46R WCI  -8          
 755 AM CLOUDY     6  -4  63 NW9       30.47R WCI  -8          
 855 AM PTSUNNY    7  -4  60 NW8       30.49R WCI  -6          
 955 AM MOSUNNY    8  -4  58 NW8       30.49S WCI  -4          
1055 AM MOSUNNY   11  -2  56 NW6       30.49S WCI   1          
1155 AM MOSUNNY   11  -2  56 NW8       30.49S WCI  -1          6HR MIN TEMP:   6; 6HR MAX TEMP:  12;                  
1255 PM MOSUNNY   13  -1  54 NW7       30.44F WCI   3          
 155 PM MOSUNNY   14  -1  51 N5        30.43F WCI   6          
 255 PM MOSUNNY   17   0  47 NW6       30.44R WCI   9          
 355 PM MOSUNNY   15  -1  49 CALM      30.44S                  
 455 PM PTCLDY    14  -1  51 NW6       30.45R WCI   5          
 555 PM PTCLDY    12  -3  51 N6        30.46R WCI   3          6HR MIN TEMP:  11; 6HR MAX TEMP:  17;                  
 655 PM PTCLDY    11  -4  51 NE8       30.47R WCI  -1          
 755 PM MOCLDY    10  -3  55 NE7       30.48R WCI  -1          
 855 PM MOCLDY    10  -4  53 NE6       30.49R WCI   0          
 955 PM MOCLDY     9  -4  55 NE6       30.50R WCI  -1          
1055 PM PTCLDY     6  -5  60 N7        30.50S WCI  -6          
1155 PM MOCLDY     6  -5  60 NE7       30.48F WCI  -6          6HR MIN TEMP:   6; 6HR MAX TEMP:  12;